Вернуться в каталог

DELTA 1 DEB

АктивенLEO
NORAD 7131·DEBRIS·🇺🇸 United States

Запущен Nov 6, 1973 с Vandenberg Space Force Base

Loading…

Ближайшие Пролёты (ближайшие 24 часа)

TLE

СвежийSource: Space-Track

Эпоха: Sep 14, 2026, 08:00 UTC

1 07131U 73086CV  26257.33355236  .00000533  00000-0  56232-2 0  9999
2 07131 101.9027 191.6525 0169991 108.2089  42.2254 12.15235594336251

Отслеживайте DELTA 1 DEB в реальном времени с AllMySat

Download on the App Store